AXI650 MMHO-KSDL

Flight info

Callsign AXI650
Flight time 0h 46m
Altitude 40000
Route HMO5A HMO J92 TUS SUNSS8
Aircraft GLF6/M-SDE3FGHIRWY/LB1

Departure

Time 2026-04-23 18:30
Airport General Ignacio L. Pesqueira International Airport (MMHO)

Arrival

Time 2026-04-23 19:17
Airport Scottsdale Airport (KSDL)
Time Latitude Longitude Altitude Speed Heading
2026-04-23 18:18 29.09312 -111.04860 639 ft 0 kts 94°
2026-04-23 18:25 29.09312 -111.04857 639 ft 1 kts 93°
2026-04-23 18:25 29.09329 -111.04848 639 ft 6 kts 327°
2026-04-23 18:25 29.09308 -111.04932 637 ft 15 kts 238°
2026-04-23 18:25 29.09246 -111.05048 635 ft 18 kts 239°
2026-04-23 18:26 29.09185 -111.05162 633 ft 17 kts 238°
2026-04-23 18:26 29.09123 -111.05278 634 ft 16 kts 239°
2026-04-23 18:26 29.09059 -111.05398 631 ft 18 kts 239°
2026-04-23 18:26 29.09004 -111.05504 632 ft 12 kts 239°
2026-04-23 18:27 29.08959 -111.05590 632 ft 12 kts 239°
2026-04-23 18:27 29.08915 -111.05670 632 ft 11 kts 237°
2026-04-23 18:27 29.08870 -111.05753 630 ft 12 kts 238°
2026-04-23 18:27 29.08821 -111.05843 629 ft 13 kts 238°
2026-04-23 18:28 29.08772 -111.05934 629 ft 13 kts 238°
2026-04-23 18:28 29.08730 -111.06024 628 ft 12 kts 255°
2026-04-23 18:28 29.08725 -111.06126 627 ft 13 kts 269°
2026-04-23 18:28 29.08742 -111.06210 625 ft 9 kts 324°
2026-04-23 18:29 29.08788 -111.06241 625 ft 5 kts 340°
2026-04-23 18:29 29.08817 -111.06222 626 ft 4 kts 52°
2026-04-23 18:29 29.08837 -111.06185 626 ft 13 kts 59°
2026-04-23 18:29 29.09058 -111.05769 631 ft 116 kts 59°
2026-04-23 18:30 29.09614 -111.04733 1124 ft 175 kts 59°
2026-04-23 18:30 29.10319 -111.03429 2007 ft 207 kts 59°
2026-04-23 18:30 29.11123 -111.02133 2547 ft 219 kts 39°
2026-04-23 18:30 29.12536 -111.01718 3808 ft 225 kts 355°
2026-04-23 18:31 29.14155 -111.02344 4407 ft 265 kts 330°
2026-04-23 18:31 29.15803 -111.03303 5760 ft 276 kts 335°
2026-04-23 18:31 29.17626 -111.03946 7218 ft 283 kts 346°
2026-04-23 18:31 29.19535 -111.04269 8667 ft 287 kts 352°
2026-04-23 18:32 29.21511 -111.04413 10123 ft 292 kts 355°
2026-04-23 18:32 29.23692 -111.04460 10568 ft 337 kts 358°
2026-04-23 18:32 29.26080 -111.04417 11645 ft 354 kts 359°
2026-04-23 18:32 29.28561 -111.04336 12773 ft 367 kts 359°
2026-04-23 18:33 29.31140 -111.04235 14005 ft 377 kts 359°
2026-04-23 18:33 29.33769 -111.04123 15281 ft 386 kts 358°
2026-04-23 18:33 29.36445 -111.04005 16555 ft 393 kts 358°
2026-04-23 18:33 29.39196 -111.03883 17827 ft 400 kts 357°
2026-04-23 18:34 29.41983 -111.03759 18985 ft 410 kts 356°
2026-04-23 18:34 29.44847 -111.03630 20279 ft 418 kts 356°
2026-04-23 18:34 29.47780 -111.03499 21498 ft 426 kts 355°
2026-04-23 18:34 29.50770 -111.03365 22618 ft 436 kts 354°
2026-04-23 18:35 29.53770 -111.03230 23926 ft 440 kts 354°
2026-04-23 18:35 29.56868 -111.03094 25097 ft 448 kts 354°
2026-04-23 18:35 29.59962 -111.02956 26248 ft 455 kts 354°
2026-04-23 18:35 29.63136 -111.02812 27374 ft 460 kts 354°
2026-04-23 18:36 29.66336 -111.02670 28443 ft 465 kts 353°
2026-04-23 18:36 29.69578 -111.02524 29415 ft 471 kts 353°
2026-04-23 18:36 29.72889 -111.02375 30298 ft 479 kts 353°
2026-04-23 18:36 29.76215 -111.02225 31243 ft 483 kts 353°
2026-04-23 18:37 29.79541 -111.02073 32318 ft 483 kts 352°
2026-04-23 18:37 29.82921 -111.01920 33402 ft 482 kts 352°
2026-04-23 18:37 29.86221 -111.01771 34592 ft 480 kts 351°
2026-04-23 18:37 29.89576 -111.01621 35598 ft 481 kts 351°
2026-04-23 18:38 29.92879 -111.01471 36819 ft 475 kts 351°
2026-04-23 18:38 29.96195 -111.01324 37537 ft 480 kts 351°
2026-04-23 18:38 29.99540 -111.01172 38548 ft 478 kts 351°
2026-04-23 18:38 30.02818 -111.01024 39483 ft 477 kts 351°
2026-04-23 18:39 30.06194 -111.00877 39914 ft 488 kts 351°
2026-04-23 18:39 30.09645 -111.00726 39899 ft 505 kts 351°
2026-04-23 18:39 30.13254 -111.00562 39898 ft 522 kts 352°
2026-04-23 18:39 30.16930 -111.00395 39895 ft 534 kts 352°
2026-04-23 18:40 30.20654 -111.00223 39894 ft 535 kts 352°
2026-04-23 18:40 30.28100 -110.99885 39920 ft 535 kts 352°
2026-04-23 18:41 30.35528 -110.99548 39918 ft 533 kts 351°
2026-04-23 18:41 30.42938 -110.99213 39916 ft 534 kts 351°
2026-04-23 18:42 30.50435 -110.98874 39920 ft 536 kts 351°
2026-04-23 18:42 30.57838 -110.98515 39934 ft 535 kts 351°
2026-04-23 18:43 30.65290 -110.98151 39932 ft 534 kts 351°
2026-04-23 18:43 30.72748 -110.97785 39946 ft 532 kts 351°
2026-04-23 18:44 30.80147 -110.97422 39970 ft 531 kts 351°
2026-04-23 18:44 30.87594 -110.97083 39980 ft 532 kts 351°
2026-04-23 18:45 30.94993 -110.96744 39987 ft 532 kts 351°
2026-04-23 18:45 31.02355 -110.96410 39989 ft 531 kts 351°
2026-04-23 18:46 31.09758 -110.96072 39997 ft 534 kts 351°
2026-04-23 18:46 31.17186 -110.95731 39992 ft 533 kts 351°
2026-04-23 18:47 31.24614 -110.95391 39976 ft 533 kts 351°
2026-04-23 18:47 31.31976 -110.95052 39958 ft 528 kts 350°
2026-04-23 18:48 31.39338 -110.94717 39951 ft 532 kts 350°
2026-04-23 18:48 31.46735 -110.94378 39944 ft 531 kts 350°
2026-04-23 18:49 31.54146 -110.94034 39918 ft 520 kts 350°
2026-04-23 18:49 31.57686 -110.93863 39885 ft 495 kts 349°
2026-04-23 18:49 31.61068 -110.93707 39861 ft 475 kts 349°
2026-04-23 18:49 31.64305 -110.93562 39851 ft 464 kts 348°
2026-04-23 18:50 31.66446 -110.93467 39847 ft 462 kts 348°
2026-04-23 18:50 31.73968 -110.93127 39857 ft 462 kts 348°
2026-04-23 18:51 31.80413 -110.92832 39547 ft 466 kts 348°
2026-04-23 18:51 31.83659 -110.92683 39061 ft 466 kts 348°
2026-04-23 18:51 31.86887 -110.92533 38541 ft 463 kts 348°
2026-04-23 18:51 31.90086 -110.92384 38029 ft 460 kts 348°
2026-04-23 18:52 31.93299 -110.92236 37522 ft 457 kts 348°
2026-04-23 18:52 31.96488 -110.92091 37016 ft 459 kts 348°
2026-04-23 18:52 31.99654 -110.91946 36513 ft 460 kts 349°
2026-04-23 18:52 32.02890 -110.91795 35996 ft 461 kts 348°
2026-04-23 18:53 32.06076 -110.91649 35484 ft 463 kts 349°
2026-04-23 18:53 32.09289 -110.91587 34950 ft 450 kts 342°
2026-04-23 18:53 32.12320 -110.92241 34484 ft 439 kts 334°
2026-04-23 18:53 32.15288 -110.93042 33992 ft 442 kts 334°
2026-04-23 18:54 32.18273 -110.93849 33499 ft 445 kts 334°
2026-04-23 18:54 32.21314 -110.94672 33020 ft 446 kts 335°
2026-04-23 18:54 32.24305 -110.95483 32539 ft 446 kts 335°
2026-04-23 18:54 32.27340 -110.96304 32039 ft 448 kts 335°
2026-04-23 18:55 32.30388 -110.97132 31545 ft 454 kts 336°
2026-04-23 18:55 32.33482 -110.97972 31047 ft 458 kts 336°
2026-04-23 18:55 32.36597 -110.98817 30532 ft 462 kts 337°
2026-04-23 18:55 32.39743 -110.99671 30029 ft 463 kts 337°
2026-04-23 18:56 32.41826 -111.00236 29692 ft 463 kts 337°
2026-04-23 18:56 32.46011 -111.01374 29016 ft 459 kts 338°
2026-04-23 18:56 32.49115 -111.02217 28517 ft 457 kts 338°
2026-04-23 18:56 32.52180 -111.03052 28012 ft 451 kts 338°
2026-04-23 18:57 32.55216 -111.03879 27517 ft 447 kts 338°
2026-04-23 18:57 32.58239 -111.04703 27021 ft 443 kts 339°
2026-04-23 18:57 32.61259 -111.05529 26531 ft 441 kts 339°
2026-04-23 18:57 32.64221 -111.06338 26045 ft 436 kts 339°
2026-04-23 18:58 32.67172 -111.07145 25562 ft 434 kts 339°
2026-04-23 18:58 32.70095 -111.07945 25084 ft 428 kts 339°
2026-04-23 18:58 32.72974 -111.08733 24611 ft 427 kts 339°
2026-04-23 18:58 32.75771 -111.09738 24117 ft 409 kts 327°
2026-04-23 18:59 32.77973 -111.11667 23671 ft 392 kts 310°
2026-04-23 18:59 32.79842 -111.13982 23237 ft 385 kts 308°
2026-04-23 18:59 32.81665 -111.16305 22807 ft 386 kts 307°
2026-04-23 18:59 32.83472 -111.18631 22379 ft 382 kts 307°
2026-04-23 19:00 32.85255 -111.20937 21954 ft 378 kts 307°
2026-04-23 19:00 32.87029 -111.23235 21530 ft 375 kts 308°
2026-04-23 19:00 32.88784 -111.25513 21103 ft 374 kts 308°
2026-04-23 19:00 32.90535 -111.27788 20693 ft 370 kts 308°
2026-04-23 19:01 32.92263 -111.30032 20280 ft 367 kts 308°
2026-04-23 19:01 32.93993 -111.32282 19867 ft 367 kts 308°
2026-04-23 19:01 32.95707 -111.34512 19463 ft 365 kts 308°
2026-04-23 19:01 32.97423 -111.36749 19059 ft 364 kts 308°
2026-04-23 19:02 32.98559 -111.38228 18791 ft 362 kts 308°
2026-04-23 19:02 33.00800 -111.41148 18261 ft 360 kts 308°
2026-04-23 19:02 33.02478 -111.43336 17856 ft 356 kts 308°
2026-04-23 19:02 33.04143 -111.45512 17458 ft 354 kts 308°
2026-04-23 19:03 33.05972 -111.47440 17060 ft 357 kts 321°
2026-04-23 19:03 33.08106 -111.48987 16682 ft 362 kts 323°
2026-04-23 19:03 33.10278 -111.50535 16269 ft 359 kts 324°
2026-04-23 19:03 33.12396 -111.52048 15871 ft 358 kts 324°
2026-04-23 19:04 33.14539 -111.53582 15470 ft 354 kts 324°
2026-04-23 19:04 33.16653 -111.55096 15086 ft 353 kts 324°
2026-04-23 19:04 33.18745 -111.56595 14692 ft 351 kts 324°
2026-04-23 19:04 33.20835 -111.58094 14303 ft 350 kts 324°
2026-04-23 19:05 33.22923 -111.59591 13916 ft 350 kts 324°
2026-04-23 19:05 33.25000 -111.61082 13533 ft 347 kts 324°
2026-04-23 19:05 33.27067 -111.62566 13150 ft 346 kts 324°
2026-04-23 19:05 33.29145 -111.64061 12764 ft 346 kts 324°
2026-04-23 19:06 33.31204 -111.65540 12386 ft 344 kts 324°
2026-04-23 19:06 33.33254 -111.67015 12012 ft 342 kts 324°
2026-04-23 19:06 33.35278 -111.68473 11634 ft 342 kts 324°
2026-04-23 19:06 33.37319 -111.69942 11254 ft 342 kts 324°
2026-04-23 19:07 33.39345 -111.71402 10876 ft 340 kts 324°
2026-04-23 19:07 33.41366 -111.72858 10499 ft 330 kts 325°
2026-04-23 19:07 33.43293 -111.74246 10136 ft 317 kts 324°
2026-04-23 19:07 33.45078 -111.75531 9719 ft 286 kts 324°
2026-04-23 19:08 33.46772 -111.76756 9561 ft 286 kts 324°
2026-04-23 19:08 33.48467 -111.77983 9188 ft 281 kts 324°
2026-04-23 19:08 33.50137 -111.79192 8874 ft 279 kts 325°
2026-04-23 19:08 33.51795 -111.80390 8565 ft 278 kts 325°
2026-04-23 19:09 33.53464 -111.81599 8255 ft 277 kts 325°
2026-04-23 19:09 33.55110 -111.82790 7952 ft 277 kts 325°
2026-04-23 19:09 33.56740 -111.83978 7650 ft 277 kts 326°
2026-04-23 19:09 33.58374 -111.85195 7449 ft 265 kts 326°
2026-04-23 19:10 33.59892 -111.86324 7156 ft 251 kts 325°
2026-04-23 19:10 33.61351 -111.87407 6842 ft 241 kts 326°
2026-04-23 19:10 33.62747 -111.88447 6533 ft 233 kts 326°
2026-04-23 19:10 33.64088 -111.89463 6226 ft 227 kts 325°
2026-04-23 19:11 33.65406 -111.90459 5980 ft 216 kts 325°
2026-04-23 19:11 33.66636 -111.91380 5713 ft 201 kts 325°
2026-04-23 19:11 33.67816 -111.92210 5420 ft 192 kts 329°
2026-04-23 19:11 33.68963 -111.92970 5206 ft 181 kts 328°
2026-04-23 19:12 33.69677 -111.93456 5177 ft 177 kts 327°
2026-04-23 19:12 33.71091 -111.94453 4975 ft 176 kts 328°
2026-04-23 19:12 33.72300 -111.94640 4788 ft 180 kts 11°
2026-04-23 19:12 33.73346 -111.93813 4324 ft 194 kts 51°
2026-04-23 19:13 33.73687 -111.92297 3977 ft 187 kts 98°
2026-04-23 19:13 33.73106 -111.91004 3799 ft 175 kts 141°
2026-04-23 19:13 33.72102 -111.90223 3657 ft 170 kts 151°
2026-04-23 19:13 33.71137 -111.89527 3473 ft 153 kts 152°
2026-04-23 19:14 33.70251 -111.88890 3271 ft 142 kts 152°
2026-04-23 19:14 33.69426 -111.88319 3125 ft 134 kts 161°
2026-04-23 19:14 33.68522 -111.88121 2927 ft 136 kts 176°
2026-04-23 19:14 33.67589 -111.88007 2602 ft 130 kts 177°
2026-04-23 19:15 33.66694 -111.87898 2547 ft 128 kts 176°
2026-04-23 19:15 33.65802 -111.87792 2487 ft 128 kts 177°
2026-04-23 19:15 33.64926 -111.87995 2289 ft 128 kts 212°
2026-04-23 19:15 33.64280 -111.88746 1923 ft 129 kts 225°
2026-04-23 19:16 33.63645 -111.89487 1708 ft 127 kts 223°
2026-04-23 19:16 33.63003 -111.90229 1520 ft 128 kts 223°
2026-04-23 19:16 33.62430 -111.90889 1483 ft 86 kts 224°
2026-04-23 19:17 33.62082 -111.91292 1469 ft 11 kts 221°
2026-04-23 19:17 33.62049 -111.91266 1469 ft 8 kts 87°
2026-04-23 19:17 33.62066 -111.91199 1470 ft 8 kts 51°
2026-04-23 19:17 33.62111 -111.91145 1472 ft 10 kts 44°
2026-04-23 19:18 33.62169 -111.91077 1475 ft 13 kts 44°
2026-04-23 19:18 33.62239 -111.90996 1478 ft 14 kts 44°
2026-04-23 19:18 33.62313 -111.90910 1481 ft 15 kts 44°
2026-04-23 19:18 33.62391 -111.90820 1484 ft 16 kts 44°
2026-04-23 19:19 33.62553 -111.90633 1491 ft 13 kts 44°
2026-04-23 19:19 33.62590 -111.90574 1492 ft 7 kts 95°
2026-04-23 19:20 33.62584 -111.90493 1492 ft 5 kts 45°
2026-04-23 19:20 33.62593 -111.90482 1492 ft 0 kts 45°
2026-04-23 19:28 33.62623 -111.90449 1493 ft 6 kts 33°
2026-04-23 19:29 33.62675 -111.90449 1494 ft 8 kts 326°
2026-04-23 19:29 33.62764 -111.90391 1497 ft 8 kts 44°
2026-04-23 19:30 33.62843 -111.90300 1500 ft 8 kts 44°
2026-04-23 19:30 33.62894 -111.90241 1502 ft 11 kts 44°
2026-04-23 19:30 33.63028 -111.90087 1507 ft 9 kts 44°
2026-04-23 19:31 33.63074 -111.90086 1508 ft 8 kts 313°
2026-04-23 19:31 33.63093 -111.90128 1508 ft 5 kts 238°
2026-04-23 19:31 33.63059 -111.90163 1507 ft 9 kts 224°
2026-04-23 19:31 33.62833 -111.90424 1497 ft 96 kts 224°
2026-04-23 19:32 33.62149 -111.91216 1603 ft 167 kts 224°
2026-04-23 19:32 33.61272 -111.92239 2414 ft 194 kts 224°
2026-04-23 19:32 33.60210 -111.93191 3140 ft 188 kts 196°
2026-04-23 19:32 33.58892 -111.92988 4045 ft 212 kts 151°
2026-04-23 19:33 33.57856 -111.91587 4692 ft 250 kts 121°
2026-04-23 19:33 33.57043 -111.89629 5552 ft 273 kts 117°
2026-04-23 19:33 33.55236 -111.85503 7738 ft 294 kts 127°
2026-04-23 19:34 33.53894 -111.83641 8875 ft 301 kts 138°
2026-04-23 19:34 33.52331 -111.81960 10051 ft 308 kts 143°
2026-04-23 19:34 33.48550 -111.78554 11212 ft 365 kts 148°
2026-04-23 19:35 33.46460 -111.76806 12210 ft 377 kts 149°
2026-04-23 19:35 33.44260 -111.75001 13307 ft 387 kts 150°
2026-04-23 19:35 33.42024 -111.73182 14444 ft 395 kts 150°
2026-04-23 19:35 33.39737 -111.71326 15632 ft 402 kts 151°
2026-04-23 19:36 33.37425 -111.69458 16733 ft 410 kts 151°
2026-04-23 19:36 33.35048 -111.67539 17805 ft 419 kts 151°
2026-04-23 19:36 33.32601 -111.65563 18940 ft 426 kts 151°
2026-04-23 19:36 33.30124 -111.63567 20035 ft 434 kts 151°
2026-04-23 19:37 33.27647 -111.61568 21233 ft 438 kts 151°
2026-04-23 19:37 33.25085 -111.59506 22258 ft 447 kts 151°
2026-04-23 19:37 33.22489 -111.57416 23322 ft 453 kts 152°
2026-04-23 19:37 33.19861 -111.55302 24365 ft 460 kts 152°
2026-04-23 19:38 33.17188 -111.53153 25429 ft 464 kts 153°
2026-04-23 19:38 33.14531 -111.51019 26404 ft 469 kts 153°
2026-04-23 19:38 33.11793 -111.48824 27278 ft 476 kts 153°
2026-04-23 19:38 33.09052 -111.46625 28047 ft 483 kts 153°
2026-04-23 19:39 33.06520 -111.43874 29058 ft 502 kts 136°
2026-04-23 19:39 33.04482 -111.40403 29653 ft 518 kts 129°
2026-04-23 19:39 33.02511 -111.36780 30343 ft 526 kts 129°
2026-04-23 19:39 33.00493 -111.33086 31116 ft 532 kts 130°
2026-04-23 19:40 32.98444 -111.29346 31973 ft 533 kts 130°
2026-04-23 19:40 32.96437 -111.25697 32561 ft 540 kts 130°
2026-04-23 19:40 32.94357 -111.21912 33305 ft 541 kts 130°
2026-04-23 19:40 32.92305 -111.18183 34029 ft 544 kts 131°
2026-04-23 19:41 32.90255 -111.14451 35053 ft 541 kts 131°
2026-04-23 19:41 32.88180 -111.10694 35835 ft 540 kts 131°
2026-04-23 19:41 32.86122 -111.06963 36583 ft 540 kts 131°
2026-04-23 19:41 32.84098 -111.03299 37351 ft 540 kts 132°
2026-04-23 19:42 32.82017 -110.99540 38034 ft 541 kts 132°
2026-04-23 19:42 32.79976 -110.95847 38833 ft 539 kts 133°
2026-04-23 19:42 32.77902 -110.92118 39255 ft 545 kts 132°
2026-04-23 19:42 32.75828 -110.88360 40396 ft 535 kts 132°
2026-04-23 19:43 32.73764 -110.84653 40850 ft 537 kts 133°
2026-04-23 19:43 32.71727 -110.80986 41671 ft 533 kts 132°
2026-04-23 19:43 32.69686 -110.77323 42117 ft 535 kts 132°
2026-04-23 19:43 32.67651 -110.73669 42871 ft 531 kts 132°
2026-04-23 19:44 32.65617 -110.70005 43339 ft 531 kts 130°
2026-04-23 19:44 32.64041 -110.65981 43846 ft 545 kts 112°
2026-04-23 19:44 32.63060 -110.61651 44246 ft 548 kts 108°
2026-04-23 19:44 32.62109 -110.57293 44622 ft 548 kts 109°
2026-04-23 19:45 32.61141 -110.52908 44901 ft 552 kts 109°
2026-04-23 19:45 32.59157 -110.43946 44921 ft 572 kts 109°
2026-04-23 19:46 32.57106 -110.34727 44939 ft 589 kts 109°
2026-04-23 19:46 32.55004 -110.25292 44946 ft 596 kts 110°